GW4573 Weather Reports


time (UTC)temp
C
wind
direction
speed
KPH
gust
KPH
rain 1hr
cm
rain 24hr
cm
rain mn
cm
humidity
%
barometer
mb
20260503005845 6 353 0.0 0.0 0.00 0.00 0.00 61 1017.2
20260503005343 6 308 0.0 0.0 0.00 0.00 0.00 60 1017.1
20260503004839 6 350 0.0 1.6 0.00 0.00 0.00 61 1017.0
20260503004336 6 29 0.0 0.0 0.00 0.00 0.00 61 1017.1
20260503003834 7 343 0.0 4.8 0.00 0.00 0.00 60 1017.2
20260503003331 7 84 3.2 4.8 0.00 0.00 0.00 59 1017.2
20260503002827 7 355 0.0 3.2 0.00 0.00 0.00 59 1016.7
20260503002324 7 16 3.2 4.8 0.00 0.00 0.00 58 1016.8
20260503001820 7 317 0.0 0.0 0.00 0.00 0.00 59 1017.0
20260503001317 7 343 0.0 0.0 0.00 0.00 0.00 59 1016.9
20260503000814 7 336 1.6 1.6 0.00 0.00 0.00 58 1016.9
20260503000312 7 322 1.6 4.8 0.00 0.00 0.00 58 1016.9
20260502235809 7 299 1.6 1.6 0.00 0.00 0.00 59 1016.8
20260502235306 7 323 0.0 1.6 0.00 0.00 0.00 58 1016.7
20260502234803 7 292 0.0 1.6 0.00 0.00 0.00 56 1016.5
20260502234300 8 25 1.6 1.6 0.00 0.00 0.00 55 1016.7
20260502233756 8 317 0.0 3.2 0.00 0.00 0.00 56 1016.6
20260502233253 8 311 11.3 14.5 0.00 0.00 0.00 54 1016.4
20260502232749 8 305 6.4 9.7 0.00 0.00 0.00 54 1016.7
20260502232246 8 315 4.8 6.4 0.00 0.00 0.00 54 1016.7
20260502231743 8 88 0.0 6.4 0.00 0.00 0.00 55 1016.6
20260502231240 8 331 8.0 12.9 0.00 0.00 0.00 55 1016.7
20260502230738 8 307 9.7 14.5 0.00 0.00 0.00 53 1016.6
20260502230236 8 322 1.6 4.8 0.00 0.00 0.00 55 1016.4
20260502225732 8 313 8.0 11.3 0.00 0.00 0.00 53 1016.4
20260502225229 8 333 6.4 14.5 0.00 0.00 0.00 54 1016.4
20260502224726 8 316 14.5 16.1 0.00 0.00 0.00 51 1016.5
20260502224222 10 332 4.8 9.7 0.00 0.00 0.00 51 1016.5
20260502223720 10 321 12.9 14.5 0.00 0.00 0.00 47 1016.4
20260502223218 8 326 1.6 9.7 0.00 0.00 0.00 50 1016.3
20260502222715 8 335 6.4 16.1 0.00 0.00 0.00 50 1016.4
20260502222212 8 303 8.0 14.5 0.00 0.00 0.00 52 1016.4
20260502221708 9 310 9.7 12.9 0.00 0.00 0.00 51 1016.3
20260502221204 9 350 4.8 6.4 0.00 0.00 0.00 52 1016.3
20260502220701 11 304 12.9 12.9 0.00 0.00 0.00 51 1016.3
20260502220157 11 71 1.6 3.2 0.00 0.00 0.00 50 1016.2
20260502215654 10 311 6.4 6.4 0.00 0.00 0.00 50 1016.2
20260502215151 9 75 11.3 14.5 0.00 0.00 0.00 50 1016.3
20260502214648 10 331 3.2 4.8 0.00 0.00 0.00 53 1016.3
20260502214145 9 347 1.6 4.8 0.00 0.00 0.00 53 1016.1
20260502213642 9 288 3.2 6.4 0.00 0.00 0.00 53 1016.1
20260502213140 9 29 6.4 9.7 0.00 0.00 0.00 51 1016.2
20260502212638 9 37 6.4 11.3 0.00 0.00 0.00 54 1016.3
20260502212136 9 22 4.8 9.7 0.00 0.00 0.00 54 1016.2
20260502211632 8 329 3.2 11.3 0.00 0.00 0.00 53 1016.2
20260502211129 8 305 6.4 9.7 0.00 0.00 0.00 51 1015.9
20260502210627 9 301 4.8 6.4 0.00 0.00 0.00 51 1015.9
20260502210124 9 292 3.2 6.4 0.00 0.00 0.00 50 1015.8
20260502205621 9 133 1.6 6.4 0.00 0.00 0.00 50 1015.7
20260502205117 10 321 4.8 12.9 0.00 0.00 0.00 50 1015.7
20260502204614 10 306 8.0 12.9 0.00 0.00 0.00 52 1015.8
20260502204111 10 74 4.8 12.9 0.00 0.00 0.00 53 1016.1
20260502203608 9 333 3.2 3.2 0.00 0.00 0.00 54 1016.1
20260502203105 9 319 6.4 6.4 0.00 0.00 0.00 55 1016.1
20260502202601 8 72 3.2 6.4 0.00 0.00 0.00 53 1016.2
20260502202059 8 319 17.7 17.7 0.00 0.00 0.00 57 1016.3
20260502201550 9 326 12.9 17.7 0.00 0.00 0.00 55 1016.1
20260502201047 10 335 4.8 9.7 0.00 0.00 0.00 52 1016.1
20260502200542 10 293 9.7 16.1 0.00 0.00 0.00 51 1016.2
20260502200040 11 298 16.1 20.9 0.00 0.00 0.00 51 1016.1
20260502195538 10 258 9.7 11.3 0.00 0.00 0.00 51 1016.3
20260502195034 10 127 0.0 14.5 0.00 0.00 0.00 51 1016.3
20260502194531 11 298 6.4 9.7 0.00 0.00 0.00 50 1016.1
20260502194027 10 336 6.4 11.3 0.00 0.00 0.00 56 1016.5
20260502193525 9 22 1.6 4.8 0.00 0.00 0.00 55 1016.6
20260502193021 9 82 6.4 12.9 0.00 0.00 0.00 59 1016.6
20260502192516 8 40 3.2 4.8 0.00 0.00 0.00 58 1016.7
20260502192014 8 296 1.6 4.8 0.00 0.00 0.00 59 1016.7
20260502191511 8 308 6.4 16.1 0.00 0.00 0.00 56 1016.8
20260502191009 8 310 12.9 16.1 0.00 0.00 0.00 55 1016.9
20260502190506 8 326 9.7 12.9 0.00 0.00 0.00 56 1016.9
20260502190003 9 357 4.8 9.7 0.00 0.00 0.00 57 1016.8
20260502185458 10 319 8.0 11.3 0.00 0.00 0.00 52 1016.9
20260502184954 9 301 3.2 6.4 0.00 0.00 0.00 54 1016.9
20260502184449 8 332 3.2 9.7 0.00 0.00 0.00 53 1016.8
20260502183946 9 31 3.2 6.4 0.00 0.00 0.00 54 1016.8
20260502183442 9 28 3.2 9.7 0.00 0.00 0.00 53 1016.8
20260502182937 8 315 6.4 9.7 0.00 0.00 0.00 55 1015.7
20260502182434 9 112 4.8 9.7 0.00 0.00 0.00 50 1015.4
20260502181929 8 120 8.0 16.1 0.00 0.00 0.00 51 1015.5
20260502181428 8 314 9.7 12.9 0.00 0.00 0.00 54 1015.5
20260502180926 8 311 9.7 12.9 0.00 0.00 0.00 55 1015.6
20260502180423 9 301 9.7 16.1 0.00 0.00 0.00 55 1015.6
20260502170342 8 304 12.9 16.1 0.00 0.00 0.00 55 1015.8
20260502164324 9 211 3.2 9.7 0.00 0.00 0.00 50 1015.9
20260502163820 10 226 3.2 12.9 0.00 0.00 0.00 47 1015.9
20260502163317 9 303 4.8 16.1 0.00 0.00 0.00 53 1016.2
20260502162814 10 315 6.4 9.7 0.00 0.00 0.00 53 1015.9
20260502162310 10 350 4.8 6.4 0.00 0.00 0.00 52 1016.1
20260502161808 9 351 3.2 11.3 0.00 0.00 0.00 54 1016.2
20260502161303 10 35 3.2 12.9 0.00 0.00 0.00 47 1016.1
20260502160801 10 119 3.2 6.4 0.00 0.00 0.00 45 1016.1
20260502160255 10 317 16.1 20.9 0.00 0.00 0.00 50 1016.2
20260502152229 9 286 9.7 12.9 0.00 0.00 0.00 57 1016.3
20260502151727 9 213 3.2 11.3 0.00 0.00 0.00 53 1016.2
20260502151223 9 321 0.0 3.2 0.00 0.00 0.00 51 1016.3
20260502150721 9 322 1.6 4.8 0.00 0.00 0.00 53 1016.2
20260502150218 9 82 3.2 11.3 0.00 0.00 0.00 56 1016.4
20260502130606 5 309 3.2 3.2 0.00 0.00 0.00 80 1016.5
20260502130104 5 148 0.0 0.0 0.00 0.00 0.00 83 1016.4
20260502123549 4 218 0.0 0.0 0.00 0.00 0.00 92 1016.3
20260502123045 3 211 0.0 0.0 0.00 0.00 0.00 93 1016.3
20260502122542 3 225 0.0 0.0 0.00 0.00 0.00 94 1015.9
20260502122040 3 207 0.0 0.0 0.00 0.00 0.00 94 1016.2
20260502121537 3 207 0.0 0.0 0.00 0.00 0.00 95 1016.3
20260502121034 2 207 0.0 0.0 0.00 0.00 0.00 95 1016.2
20260502120530 2 209 0.0 0.0 0.00 0.00 0.00 95 1016.2
20260502115525 2 255 0.0 0.0 0.00 0.00 0.00 96 1016.1
20260502115021 2 249 0.0 0.0 0.00 0.00 0.00 96 1016.1
20260502114518 2 265 0.0 0.0 0.00 0.00 0.00 96 1016.2
20260502114015 2 191 0.0 0.0 0.00 0.00 0.00 96 1016.2
20260502113512 2 192 0.0 0.0 0.00 0.00 0.00 96 1016.3
20260502113011 2 161 0.0 0.0 0.00 0.00 0.00 96 1016.3
20260502112508 1 158 0.0 0.0 0.00 0.00 0.00 96 1016.2
20260502112005 1 158 0.0 0.0 0.00 0.00 0.00 96 1016.2
20260502111503 1 158 0.0 0.0 0.00 0.00 0.00 96 1015.8
20260502111000 1 158 0.0 0.0 0.00 0.00 0.00 96 1015.9
20260502110457 1 158 0.0 0.0 0.00 0.00 0.00 96 1015.9
20260502105954 1 158 0.0 0.0 0.00 0.00 0.00 96 1016.1
20260502105452 1 158 0.0 0.0 0.00 0.00 0.00 96 1015.8
20260502104950 1 158 0.0 0.0 0.00 0.00 0.00 95 1015.9
20260502104447 1 158 0.0 0.0 0.00 0.00 0.00 95 1015.8
20260502103944 1 158 0.0 0.0 0.00 0.00 0.00 95 1015.7
20260502103441 1 163 0.0 0.0 0.00 0.00 0.00 95 1015.7
20260502102938 1 151 0.0 0.0 0.00 0.00 0.00 94 1016.1
20260502102435 1 151 0.0 0.0 0.00 0.00 0.00 94 1015.7
20260502101932 1 165 0.0 0.0 0.00 0.00 0.00 94 1015.9
20260502101430 1 178 0.0 0.0 0.00 0.00 0.00 94 1016.2
20260502100928 1 152 0.0 0.0 0.00 0.00 0.00 94 1016.1
20260502100427 1 152 0.0 0.0 0.00 0.00 0.00 93 1015.9
20260502091401 2 117 0.0 0.0 0.00 0.00 0.00 90 1016.3
20260502090859 2 149 0.0 0.0 0.00 0.00 0.00 90 1016.3
20260502090355 2 149 0.0 0.0 0.00 0.00 0.00 90 1016.4
20260502071250 5 297 0.0 0.0 0.00 0.00 0.00 78 1016.2
20260502070749 5 297 0.0 0.0 0.00 0.00 0.00 77 1015.9
20260502070246 5 288 0.0 0.0 0.00 0.00 0.00 78 1016.2
20260502065744 5 344 0.0 3.2 0.00 0.00 0.00 78 1016.2
20260502065242 5 320 3.2 3.2 0.00 0.00 0.00 81 1016.2
20260502064740 5 285 0.0 0.0 0.00 0.00 0.00 82 1016.2
20260502064238 5 282 0.0 0.0 0.00 0.00 0.00 78 1015.9
20260502063735 5 204 0.0 0.0 0.00 0.00 0.00 79 1016.1
20260502063233 5 276 0.0 0.0 0.00 0.00 0.00 79 1016.1
20260502062729 5 318 0.0 0.0 0.00 0.00 0.00 80 1016.3
20260502062222 5 299 0.0 3.2 0.00 0.00 0.00 80 1016.3
20260502061720 5 181 0.0 0.0 0.00 0.00 0.00 78 1016.4
20260502061217 5 250 0.0 0.0 0.00 0.00 0.00 78 1016.5
20260502060712 5 225 0.0 0.0 0.00 0.00 0.00 78 1016.4
20260502060209 5 157 0.0 0.0 0.00 0.00 0.00 77 1016.3
20260502055707 5 140 0.0 0.0 0.00 0.00 0.00 75 1016.2
20260502055204 5 141 0.0 0.0 0.00 0.00 0.00 76 1016.3
20260502054704 6 151 0.0 0.0 0.00 0.00 0.00 76 1016.3
20260502054200 6 89 0.0 0.0 0.00 0.00 0.00 71 1016.2
20260502053657 6 340 0.0 1.6 0.00 0.00 0.00 71 1016.4
20260502053154 6 3 0.0 0.0 0.00 0.00 0.00 71 1016.4
20260502052652 6 141 0.0 0.0 0.00 0.00 0.00 72 1016.3
20260502052150 6 332 0.0 0.0 0.00 0.00 0.00 70 1016.4
20260502051648 6 356 0.0 0.0 0.00 0.00 0.00 70 1016.5
20260502051146 6 307 0.0 3.2 0.00 0.00 0.00 70 1016.6
20260502050642 6 301 0.0 3.2 0.00 0.00 0.00 68 1016.6
20260502050138 7 98 0.0 3.2 0.00 0.00 0.00 67 1016.4
20260502045635 7 3 1.6 3.2 0.00 0.00 0.00 68 1016.4
20260502045133 7 59 4.8 6.4 0.00 0.00 0.00 65 1016.6
20260502044629 7 332 4.8 6.4 0.00 0.00 0.00 66 1016.6
20260502044126 7 267 0.0 3.2 0.00 0.00 0.00 67 1016.6
20260502043624 7 330 4.8 6.4 0.00 0.00 0.00 70 1016.5
20260502043120 7 327 3.2 3.2 0.00 0.00 0.00 72 1016.5
20260502042614 7 335 3.2 4.8 0.00 0.00 0.00 72 1016.5
20260502042112 7 355 0.0 1.6 0.00 0.00 0.00 73 1016.5
20260502041609 7 15 1.6 4.8 0.00 0.00 0.00 73 1016.6
20260502041106 8 19 3.2 4.8 0.00 0.00 0.00 74 1016.4
20260502040603 8 338 3.2 4.8 0.00 0.00 0.00 75 1016.3
20260502040100 8 338 1.6 3.2 0.00 0.00 0.00 75 1016.4
20260502035556 8 84 0.0 1.6 0.00 0.00 0.00 77 1016.4
20260502035054 8 282 3.2 3.2 0.00 0.00 0.00 78 1016.2
20260502034551 8 306 4.8 12.9 0.00 0.00 0.00 77 1016.3
20260502034049 8 308 1.6 9.7 0.00 0.00 0.00 77 1016.3
20260502033547 8 116 3.2 4.8 0.00 0.00 0.00 77 1016.2
20260502033044 8 40 1.6 4.8 0.00 0.00 0.00 76 1016.3
20260502032540 8 329 3.2 6.4 0.00 0.00 0.00 76 1016.2
20260502032037 8 14 0.0 3.2 0.00 0.00 0.00 76 1016.5
20260502031535 8 320 6.4 11.3 0.00 0.00 0.00 76 1016.3
20260502031033 8 328 0.0 4.8 0.00 0.00 0.00 76 1016.4
20260502030531 8 315 4.8 14.5 0.00 0.00 0.00 76 1016.4
20260502030029 8 2 4.8 6.4 0.00 0.00 0.00 75 1016.2
20260502025526 8 0 3.2 6.4 0.00 0.00 0.00 76 1016.3
20260502025024 8 14 1.6 4.8 0.00 0.00 0.00 75 1016.4
20260502024521 8 323 1.6 6.4 0.00 0.00 0.00 75 1016.2
20260502024020 8 307 0.0 1.6 0.00 0.00 0.00 75 1016.2
20260502023517 8 315 0.0 1.6 0.00 0.00 0.00 74 1016.1
20260502023014 8 12 0.0 4.8 0.00 0.00 0.00 75 1016.1
20260502022510 8 356 1.6 12.9 0.00 0.00 0.00 72 1016.1
20260502022008 8 355 0.0 3.2 0.00 0.00 0.00 72 1015.6
20260502021505 8 320 1.6 3.2 0.00 0.00 0.00 72 1016.1
20260502021001 9 341 1.6 1.6 0.00 0.00 0.00 70 1015.7
20260502020500 9 300 0.0 1.6 0.00 0.00 0.00 70 1015.6
20260502015956 9 95 3.2 3.2 0.00 0.00 0.00 71 1015.4
20260502015454 8 345 1.6 4.8 0.00 0.00 0.00 71 1015.6
20260502014950 9 323 1.6 3.2 0.00 0.00 0.00 71 1015.4
20260502014447 9 8 4.8 11.3 0.00 0.00 0.00 71 1015.2
20260502013944 9 91 1.6 4.8 0.00 0.00 0.00 70 1015.1
20260502013439 9 118 0.0 1.6 0.00 0.00 0.00 71 1014.9
20260502012936 9 89 1.6 3.2 0.00 0.00 0.00 71 1014.9
20260502012434 10 298 3.2 4.8 0.00 0.00 0.00 71 1014.9
20260502011931 10 287 3.2 4.8 0.00 0.00 0.00 69 1014.8
20260502011427 10 139 1.6 4.8 0.00 0.00 0.00 69 1014.6
20260502010924 10 301 6.4 11.3 0.00 0.00 0.00 70 1014.7
20260502010420 10 23 3.2 6.4 0.00 0.00 0.00 70 1014.7